Вернуться в каталог

STARLINK-30346

АктивенСвязьVLEO
NORAD 57704·PAYLOAD·🇺🇸 United States

Запущен Aug 27, 2023 с Cape Canaveral Space Force Station

Loading…

Ближайшие Пролёты (ближайшие 24 часа)

TLE

СвежийSource: CelesTrak SupGP

Эпоха: Sep 14, 2026, 21:14 UTC

1 57704C 23129G   26257.88520833 -.00005995  00000+0 -21738-3 0  2579
2 57704  43.0019 129.1967 0001887 254.3617 348.4203 15.27543241    18

Отслеживайте STARLINK-30346 в реальном времени с AllMySat

Download on the App Store